Amsterdam, Netherlands

10:11 PM CET on February 08, 2016 (GMT +0100)
Schiphol

Weather History for EHAM - October, 2012

Change the Weather History Date:

Saturday, October 20, 2012

  Actual Average Record
Temperature  
Mean Temperature 57 °F -  
Max Temperature 59 °F 51 °F 69 °F (2001)
Min Temperature 55 °F 41 °F 35 °F (2007)
Degree Days  
Heating Degree Days 8    
Growing Degree Days 7 (Base 50)    
Moisture  
Dew Point 55 °F    
Average Humidity 88    
Maximum Humidity 94    
Minimum Humidity 78    
Precipitation  
Precipitation 0.02 in - - ()
Sea Level Pressure  
Sea Level Pressure 29.98 in    
Wind  
Wind Speed 7 mph ()    
Max Wind Speed 14 mph    
Max Gust Speed -    
Visibility 6.9 miles    
Events Rain    
Averages and records for this station are not official NWS values.
T = Trace of Precipitation, MM = Missing Value Source: Averaged Metar Reports

Daily Weather History Graph

Daily Weather History Graph

Search for Another Location

Airport or City:

Trip Planner

Search our weather history database for the weather conditions in past years. The results will help you decide how hot, cold, wet, or windy it might be!

Date:

Astronomy

Oct. 20, 2012 Rise Set
Actual Time 8:15 AM CEST 6:34 PM CEST
Civil Twilight 7:40 AM CEST 7:09 PM CEST
Nautical Twilight 7:01 AM CEST 7:49 PM CEST
Astronomical Twilight 6:21 AM CEST 8:28 PM CEST
Moon 2:02 PM CEST (10/20) 10:40 PM CEST (10/20)
Length of Visible Light 11h 28m
Length of Day
10h 19m
Waxing Crescent, 31% of the Moon is Illuminated
Oct 20
Waxing Crescent
Oct 22
First Quarter
Oct 29
Full
Nov 7
Last Quarter
Nov 13
New

Hourly Weather History & Observations

Time (CEST) Temp. Dew Point Humidity Pressure Visibility Wind Dir Wind Speed Gust Speed Precip Events Conditions
12:25 AM 60.8 °F 57.2 °F 88% 29.83 in - SE 8.1 mph - N/A   Clear
12:55 AM 60.8 °F 55.4 °F 82% 29.83 in - SE 8.1 mph - N/A   Clear
1:25 AM 60.8 °F 55.4 °F 82% 29.83 in - SSE 9.2 mph - N/A   Clear
1:55 AM 60.8 °F 55.4 °F 82% 29.83 in - SE 9.2 mph - N/A   Clear
2:00 AM 60 °F 56 °F 81% 29.86 in 16 mi SE 8.9 mph - -   Partly Cloudy
2:25 AM 60.8 °F 55.4 °F 82% 29.83 in - SSE 9.2 mph - N/A   Clear
2:55 AM 60.8 °F 55.4 °F 82% 29.86 in 6.2 mi South 8.1 mph - N/A   Partly Cloudy
3:25 AM 60.8 °F 57.2 °F 88% 29.86 in 6.2 mi SSE 6.9 mph - N/A Rain Light Rain
3:55 AM 60.8 °F 57.2 °F 88% 29.86 in 6.2 mi SSE 8.1 mph - N/A   Mostly Cloudy
4:25 AM 59.0 °F 55.4 °F 88% 29.86 in - SSE 5.8 mph - N/A   Clear
4:55 AM 59.0 °F 57.2 °F 94% 29.86 in 6.2 mi South 8.1 mph - N/A   Mostly Cloudy
5:00 AM 60 °F 56 °F 83% 29.87 in 14 mi South 8.9 mph - -   Overcast
5:25 AM 59.0 °F 57.2 °F 94% 29.86 in 6.2 mi South 8.1 mph - N/A Rain Light Rain
5:55 AM 59.0 °F 57.2 °F 94% 29.86 in 6.2 mi South 6.9 mph - N/A Rain Light Rain
6:25 AM 59.0 °F 57.2 °F 94% 29.89 in 6.2 mi SSW 6.9 mph - N/A Rain Light Rain
6:55 AM 59.0 °F 57.2 °F 94% 29.89 in 6.2 mi SSW 5.8 mph - N/A Rain Light Rain
7:25 AM 59.0 °F 57.2 °F 94% 29.92 in 6.2 mi SSW 8.1 mph - N/A   Mostly Cloudy
7:55 AM 59.0 °F 57.2 °F 94% 29.92 in 6.2 mi South 8.1 mph - N/A   Scattered Clouds
8:00 AM 59 °F 57 °F 92% 29.94 in 7 mi SSW 8.9 mph - - Rain Rain
8:25 AM 59.0 °F 57.2 °F 94% 29.95 in 4.3 mi SW 8.1 mph - N/A   Overcast
8:55 AM 59.0 °F 57.2 °F 94% 29.95 in 6.2 mi SW 12.7 mph - N/A   Mostly Cloudy
9:25 AM 59.0 °F 55.4 °F 88% 29.98 in 6.2 mi SW 13.8 mph - N/A   Mostly Cloudy
9:55 AM 59.0 °F 55.4 °F 88% 29.98 in 6.2 mi SW 12.7 mph - N/A   Mostly Cloudy
10:25 AM 59.0 °F 55.4 °F 88% 29.98 in 6.2 mi SW 13.8 mph - N/A   Mostly Cloudy
10:55 AM 59.0 °F 55.4 °F 88% 30.01 in 6.2 mi WSW 10.4 mph - N/A   Mostly Cloudy
11:00 AM 59 °F 56 °F 85% 30.01 in 12 mi WSW 8.9 mph - -   Overcast
11:25 AM 59.0 °F 55.4 °F 88% 30.01 in 6.2 mi West 12.7 mph - N/A   Mostly Cloudy
11:55 AM 59.0 °F 53.6 °F 82% 30.04 in 6.2 mi WSW 13.8 mph - N/A   Mostly Cloudy
12:25 PM 57.2 °F 53.6 °F 88% 30.04 in 6.2 mi SW 8.1 mph - N/A   Mostly Cloudy
12:55 PM 59.0 °F 53.6 °F 82% 30.04 in 6.2 mi SW 10.4 mph - N/A   Mostly Cloudy
1:25 PM 57.2 °F 53.6 °F 88% 30.04 in 6.2 mi SW 10.4 mph - N/A   Mostly Cloudy
1:55 PM 59.0 °F 55.4 °F 88% 30.04 in 6.2 mi West 6.9 mph - N/A   Mostly Cloudy
2:00 PM 59 °F 54 °F 78% 30.07 in 25 mi West 8.9 mph - -   Partly Cloudy
2:25 PM 59.0 °F 55.4 °F 88% 30.06 in 6.2 mi WNW 9.2 mph - N/A   Mostly Cloudy
2:55 PM 59.0 °F 53.6 °F 82% 30.06 in 6.2 mi West 5.8 mph - N/A   Mostly Cloudy
3:25 PM 57.2 °F 53.6 °F 88% 30.06 in 6.2 mi NW 5.8 mph - N/A   Mostly Cloudy
3:55 PM 59.0 °F 53.6 °F 82% 30.04 in 6.2 mi Variable 2.3 mph - N/A   Partly Cloudy
4:25 PM 59.0 °F 53.6 °F 82% 30.04 in 6.2 mi North 2.3 mph - N/A Rain Light Rain
4:55 PM 57.2 °F 53.6 °F 88% 30.04 in 6.2 mi NW 3.5 mph - N/A   Partly Cloudy
5:00 PM 58 °F 53 °F 79% 30.07 in 28 mi WNW 4.5 mph - -   Overcast
5:25 PM 57.2 °F 53.6 °F 88% 30.06 in 6.2 mi NW 3.5 mph - N/A   Partly Cloudy
5:55 PM 57.2 °F 53.6 °F 88% 30.06 in 6.2 mi NNW 4.6 mph - N/A   Mostly Cloudy
6:25 PM 57.2 °F 53.6 °F 88% 30.06 in 6.2 mi NNW 3.5 mph - N/A   Mostly Cloudy
6:55 PM 57.2 °F 53.6 °F 88% 30.09 in 6.2 mi NW 3.5 mph - N/A   Mostly Cloudy
7:25 PM 57.2 °F 53.6 °F 88% 30.09 in 6.2 mi North 4.6 mph - N/A   Mostly Cloudy
7:55 PM 57.2 °F 53.6 °F 88% 30.09 in 6.2 mi NE 3.5 mph - N/A   Scattered Clouds
8:00 PM 56 °F 53 °F 86% 30.10 in 28 mi NE 2.2 mph - -   Partly Cloudy
8:25 PM 57.2 °F 51.8 °F 82% 30.06 in - NE 5.8 mph - N/A   Clear
8:55 PM 55.4 °F 53.6 °F 94% 30.06 in - ENE 4.6 mph - N/A   Clear
9:25 PM 55.4 °F 53.6 °F 94% 30.06 in - ENE 4.6 mph - N/A   Clear
9:55 PM 55.4 °F 53.6 °F 94% 30.06 in - NE 3.5 mph - N/A   Clear
10:25 PM 55.4 °F 53.6 °F 94% 30.06 in - NNE 3.5 mph - N/A   Clear
10:55 PM 55.4 °F 53.6 °F 94% 30.06 in 6.2 mi NNE 5.8 mph - N/A   Partly Cloudy
11:00 PM 56 °F 53 °F 86% 30.09 in 14 mi NE 4.5 mph - -   Overcast
11:25 PM 55.4 °F 53.6 °F 94% 30.06 in 6.2 mi ENE 6.9 mph - N/A   Scattered Clouds
11:55 PM 55.4 °F 53.6 °F 94% 30.06 in 6.2 mi NE 8.1 mph - N/A   Overcast